Year,Month,Day,Hour,Minute,Value (Times are PST for windspeed in km/hr)
2018,07,15,00,00,0.00
2018,07,15,00,01,0.00
2018,07,15,00,02,0.00
2018,07,15,00,03,0.00
2018,07,15,00,04,0.00
2018,07,15,00,05,0.00
2018,07,15,00,06,0.10
2018,07,15,00,07,0.00
2018,07,15,00,08,0.00
2018,07,15,00,09,0.10
2018,07,15,00,10,0.00
2018,07,15,00,11,0.00
2018,07,15,00,12,0.00
2018,07,15,00,13,0.00
2018,07,15,00,14,0.00
2018,07,15,00,15,0.00
2018,07,15,00,16,0.00
2018,07,15,00,17,0.00
2018,07,15,00,18,0.00
2018,07,15,00,19,0.00
2018,07,15,00,20,0.00
2018,07,15,00,21,0.00
2018,07,15,00,22,0.00
2018,07,15,00,23,0.00
2018,07,15,00,24,0.20
2018,07,15,00,25,0.10
2018,07,15,00,26,0.00
2018,07,15,00,27,0.00
2018,07,15,00,28,0.10
2018,07,15,00,29,0.00
2018,07,15,00,30,0.00
2018,07,15,00,31,0.00
2018,07,15,00,32,0.00
2018,07,15,00,33,0.00
2018,07,15,00,34,0.00
2018,07,15,00,35,0.00
2018,07,15,00,36,0.00
2018,07,15,00,37,0.30
2018,07,15,00,38,0.00
2018,07,15,00,39,0.00
2018,07,15,00,40,0.10
2018,07,15,00,41,0.70
2018,07,15,00,42,0.10
2018,07,15,00,43,0.00
2018,07,15,00,44,0.00
2018,07,15,00,45,0.00
2018,07,15,00,46,0.00
2018,07,15,00,47,0.00
2018,07,15,00,48,0.00
2018,07,15,00,49,0.00
2018,07,15,00,50,0.00
2018,07,15,00,51,0.00
2018,07,15,00,52,0.00
2018,07,15,00,53,0.00
2018,07,15,00,54,0.00
2018,07,15,00,55,0.00
2018,07,15,00,56,0.00
2018,07,15,00,57,0.00
2018,07,15,00,58,0.00
2018,07,15,00,59,0.00
2018,07,15,01,00,0.00
2018,07,15,01,01,0.00
2018,07,15,01,02,0.00
2018,07,15,01,03,0.00
2018,07,15,01,04,0.00
2018,07,15,01,05,0.00
2018,07,15,01,06,0.00
2018,07,15,01,07,0.00
2018,07,15,01,08,0.00
2018,07,15,01,09,0.00
2018,07,15,01,10,2.20
2018,07,15,01,11,3.70
2018,07,15,01,12,2.20
2018,07,15,01,13,2.00
2018,07,15,01,14,8.40
2018,07,15,01,15,11.70
2018,07,15,01,16,12.20
2018,07,15,01,17,9.80
2018,07,15,01,18,8.60
2018,07,15,01,19,8.50
2018,07,15,01,20,9.70
2018,07,15,01,21,10.30
2018,07,15,01,22,7.30
2018,07,15,01,23,8.70
2018,07,15,01,24,8.80
2018,07,15,01,25,7.00
2018,07,15,01,26,12.60
2018,07,15,01,27,11.50
2018,07,15,01,28,5.70
2018,07,15,01,29,8.00
2018,07,15,01,30,11.70
2018,07,15,01,31,10.90
2018,07,15,01,32,10.10
2018,07,15,01,33,10.10
2018,07,15,01,34,5.80
2018,07,15,01,35,11.30
2018,07,15,01,36,6.00
2018,07,15,01,37,4.80
2018,07,15,01,38,6.20
2018,07,15,01,39,4.40
2018,07,15,01,40,13.80
2018,07,15,01,41,5.20
2018,07,15,01,42,3.50
2018,07,15,01,43,7.50
2018,07,15,01,44,7.40
2018,07,15,01,45,6.80
2018,07,15,01,46,4.30
2018,07,15,01,47,3.90
2018,07,15,01,48,4.40
2018,07,15,01,49,3.90
2018,07,15,01,50,0.50
2018,07,15,01,51,0.00
2018,07,15,01,52,0.40
2018,07,15,01,53,3.90
2018,07,15,01,54,3.50
2018,07,15,01,55,0.70
2018,07,15,01,56,1.80
2018,07,15,01,57,0.70
2018,07,15,01,58,0.10
2018,07,15,01,59,2.80
2018,07,15,02,00,0.30
2018,07,15,02,01,7.20
2018,07,15,02,02,7.50
2018,07,15,02,03,1.70
2018,07,15,02,04,4.30
2018,07,15,02,05,4.80
2018,07,15,02,06,3.60
2018,07,15,02,07,3.90
2018,07,15,02,08,1.90
2018,07,15,02,09,1.10
2018,07,15,02,10,3.60
2018,07,15,02,11,0.40
2018,07,15,02,12,1.50
2018,07,15,02,13,9.00
2018,07,15,02,14,6.80
2018,07,15,02,15,8.10
2018,07,15,02,16,6.50
2018,07,15,02,17,3.30
2018,07,15,02,18,2.00
2018,07,15,02,19,4.00
2018,07,15,02,20,6.30
2018,07,15,02,21,1.10
2018,07,15,02,22,2.90
2018,07,15,02,23,10.20
2018,07,15,02,24,8.30
2018,07,15,02,25,3.90
2018,07,15,02,26,4.50
2018,07,15,02,27,2.70
2018,07,15,02,28,6.40
2018,07,15,02,29,2.90
2018,07,15,02,30,1.40
2018,07,15,02,31,0.00
2018,07,15,02,32,4.10
2018,07,15,02,33,2.40
2018,07,15,02,34,3.50
2018,07,15,02,35,0.80
2018,07,15,02,36,0.00
2018,07,15,02,37,2.60
2018,07,15,02,38,2.90
2018,07,15,02,39,3.90
2018,07,15,02,40,1.60
2018,07,15,02,41,6.40
2018,07,15,02,42,2.50
2018,07,15,02,43,4.20
2018,07,15,02,44,0.60
2018,07,15,02,45,0.10
2018,07,15,02,46,0.10
2018,07,15,02,47,2.50
2018,07,15,02,48,3.40
2018,07,15,02,49,1.50
2018,07,15,02,50,0.10
2018,07,15,02,51,6.70
2018,07,15,02,52,1.80
2018,07,15,02,53,2.80
2018,07,15,02,54,7.80
2018,07,15,02,55,6.90
2018,07,15,02,56,2.40
2018,07,15,02,57,3.50
2018,07,15,02,58,4.40
2018,07,15,02,59,2.90
2018,07,15,03,00,4.10
2018,07,15,03,01,3.90
2018,07,15,03,02,5.20
2018,07,15,03,03,2.30
2018,07,15,03,04,1.70
2018,07,15,03,05,0.10
2018,07,15,03,06,0.20
2018,07,15,03,07,2.30
2018,07,15,03,08,0.10
2018,07,15,03,09,0.00
2018,07,15,03,10,0.90
2018,07,15,03,11,0.00
2018,07,15,03,12,0.00
2018,07,15,03,13,0.60
2018,07,15,03,14,0.40
2018,07,15,03,15,0.00
2018,07,15,03,16,0.50
2018,07,15,03,17,3.90
2018,07,15,03,18,1.10
2018,07,15,03,19,1.00
2018,07,15,03,20,0.10
2018,07,15,03,21,0.30
2018,07,15,03,22,0.00
2018,07,15,03,23,0.00
2018,07,15,03,24,2.40
2018,07,15,03,25,2.70
2018,07,15,03,26,1.90
2018,07,15,03,27,3.90
2018,07,15,03,28,0.10
2018,07,15,03,29,0.60
2018,07,15,03,30,0.00
2018,07,15,03,31,0.00
2018,07,15,03,32,1.00
2018,07,15,03,33,4.90
2018,07,15,03,34,1.40
2018,07,15,03,35,1.60
2018,07,15,03,36,0.00
2018,07,15,03,37,0.00
2018,07,15,03,38,0.00
2018,07,15,03,39,1.30
2018,07,15,03,40,0.00
2018,07,15,03,41,0.20
2018,07,15,03,42,0.00
2018,07,15,03,43,0.00
2018,07,15,03,44,0.00
2018,07,15,03,45,0.00
2018,07,15,03,46,0.00
2018,07,15,03,47,0.00
2018,07,15,03,48,0.00
2018,07,15,03,49,0.00
2018,07,15,03,50,0.00
2018,07,15,03,51,0.00
2018,07,15,03,52,0.00
2018,07,15,03,53,0.00
2018,07,15,03,54,0.10
2018,07,15,03,55,0.00
2018,07,15,03,56,0.20
2018,07,15,03,57,0.00
2018,07,15,03,58,0.00
2018,07,15,03,59,0.00
2018,07,15,04,00,0.00
2018,07,15,04,01,0.10
2018,07,15,04,02,0.10
2018,07,15,04,03,0.00
2018,07,15,04,04,0.00
2018,07,15,04,05,0.00
2018,07,15,04,06,0.00
2018,07,15,04,07,0.10
2018,07,15,04,08,0.00
2018,07,15,04,09,0.80
2018,07,15,04,10,2.30
2018,07,15,04,11,4.40
2018,07,15,04,12,5.10
2018,07,15,04,13,7.80
2018,07,15,04,14,10.00
2018,07,15,04,15,8.20
2018,07,15,04,16,5.50
2018,07,15,04,17,6.80
2018,07,15,04,18,8.80
2018,07,15,04,19,4.20
2018,07,15,04,20,6.50
2018,07,15,04,21,5.40
2018,07,15,04,22,4.40
2018,07,15,04,23,5.90
2018,07,15,04,24,1.70
2018,07,15,04,25,3.10
2018,07,15,04,26,3.80
2018,07,15,04,27,3.80
2018,07,15,04,28,1.80
2018,07,15,04,29,2.80
2018,07,15,04,30,0.00
2018,07,15,04,31,0.20
2018,07,15,04,32,0.60
2018,07,15,04,33,0.00
2018,07,15,04,34,0.20
2018,07,15,04,35,2.90
2018,07,15,04,36,1.10
2018,07,15,04,37,0.10
2018,07,15,04,38,0.00
2018,07,15,04,39,0.00
2018,07,15,04,40,0.00
2018,07,15,04,41,0.00
2018,07,15,04,42,0.00
2018,07,15,04,43,0.00
2018,07,15,04,44,4.40
2018,07,15,04,45,2.90
2018,07,15,04,46,4.80
2018,07,15,04,47,2.20
2018,07,15,04,48,3.20
2018,07,15,04,49,1.30
2018,07,15,04,50,0.60
2018,07,15,04,51,3.40
2018,07,15,04,52,1.00
2018,07,15,04,53,6.90
2018,07,15,04,54,5.90
2018,07,15,04,55,0.80
2018,07,15,04,56,2.50
2018,07,15,04,57,14.80
2018,07,15,04,58,16.20
2018,07,15,04,59,9.60
2018,07,15,05,00,8.50
2018,07,15,05,01,12.70
2018,07,15,05,02,4.10
2018,07,15,05,03,4.50
2018,07,15,05,04,6.80
2018,07,15,05,05,2.90
2018,07,15,05,06,6.00
2018,07,15,05,07,2.50
2018,07,15,05,08,2.60
2018,07,15,05,09,6.10
2018,07,15,05,10,4.80
2018,07,15,05,11,4.70
2018,07,15,05,12,3.40
2018,07,15,05,13,9.90
2018,07,15,05,14,7.80
2018,07,15,05,15,4.40
2018,07,15,05,16,11.10
2018,07,15,05,17,6.10
2018,07,15,05,18,10.40
2018,07,15,05,19,7.20
2018,07,15,05,20,1.00
2018,07,15,05,21,6.00
2018,07,15,05,22,13.90
2018,07,15,05,23,7.00
2018,07,15,05,24,7.20
2018,07,15,05,25,8.00
2018,07,15,05,26,4.40
2018,07,15,05,27,2.70
2018,07,15,05,28,1.70
2018,07,15,05,29,4.40
2018,07,15,05,30,6.20
2018,07,15,05,31,4.70
2018,07,15,05,32,6.00
2018,07,15,05,33,2.70
2018,07,15,05,34,8.70
2018,07,15,05,35,1.40
2018,07,15,05,36,8.00
2018,07,15,05,37,4.80
2018,07,15,05,38,2.30
2018,07,15,05,39,0.50
2018,07,15,05,40,2.70
2018,07,15,05,41,8.40
2018,07,15,05,42,6.00
2018,07,15,05,43,6.30
2018,07,15,05,44,5.50
2018,07,15,05,45,12.30
2018,07,15,05,46,5.90
2018,07,15,05,47,11.30
2018,07,15,05,48,10.80
2018,07,15,05,49,10.50
2018,07,15,05,50,7.00
2018,07,15,05,51,10.70
2018,07,15,05,52,12.90
2018,07,15,05,53,9.90
2018,07,15,05,54,7.80
2018,07,15,05,55,5.40
2018,07,15,05,56,2.70
2018,07,15,05,57,4.30
2018,07,15,05,58,5.50
2018,07,15,05,59,8.20
2018,07,15,06,00,13.90
2018,07,15,06,01,8.00
2018,07,15,06,02,2.70
2018,07,15,06,03,5.40
2018,07,15,06,04,6.30
2018,07,15,06,05,10.50
2018,07,15,06,06,6.10
2018,07,15,06,07,4.90
2018,07,15,06,08,8.40
2018,07,15,06,09,6.20
2018,07,15,06,10,6.30
2018,07,15,06,11,5.30
2018,07,15,06,12,2.40
2018,07,15,06,13,2.40
2018,07,15,06,14,6.70
2018,07,15,06,15,9.20
2018,07,15,06,16,5.00
2018,07,15,06,17,2.40
2018,07,15,06,18,9.00
2018,07,15,06,19,3.60
2018,07,15,06,20,5.10
2018,07,15,06,21,7.00
2018,07,15,06,22,2.10
2018,07,15,06,23,5.50
2018,07,15,06,24,0.50
2018,07,15,06,25,2.30
2018,07,15,06,26,0.00
2018,07,15,06,27,0.50
2018,07,15,06,28,4.00
2018,07,15,06,29,0.50
2018,07,15,06,30,2.00
2018,07,15,06,31,7.70
2018,07,15,06,32,2.80
2018,07,15,06,33,4.70
2018,07,15,06,34,3.20
2018,07,15,06,35,5.40
2018,07,15,06,36,4.70
2018,07,15,06,37,3.90
2018,07,15,06,38,2.50
2018,07,15,06,39,4.90
2018,07,15,06,40,5.10
2018,07,15,06,41,0.50
2018,07,15,06,42,5.10
2018,07,15,06,43,6.60
2018,07,15,06,44,5.40
2018,07,15,06,45,6.40
2018,07,15,06,46,3.80
2018,07,15,06,47,8.90
2018,07,15,06,48,4.00
2018,07,15,06,49,2.20
2018,07,15,06,50,1.60
2018,07,15,06,51,11.00
2018,07,15,06,52,9.40
2018,07,15,06,53,8.60
2018,07,15,06,54,7.10
2018,07,15,06,55,11.40
2018,07,15,06,56,11.20
2018,07,15,06,57,10.90
2018,07,15,06,58,5.30
2018,07,15,06,59,9.10
2018,07,15,07,00,6.30
2018,07,15,07,01,7.20
2018,07,15,07,02,8.50
2018,07,15,07,03,9.20
2018,07,15,07,04,10.30
2018,07,15,07,05,7.00
2018,07,15,07,06,4.30
2018,07,15,07,07,1.30
2018,07,15,07,08,4.50
2018,07,15,07,09,7.50
2018,07,15,07,10,7.40
2018,07,15,07,11,10.20
2018,07,15,07,12,3.90
2018,07,15,07,13,1.00
2018,07,15,07,14,2.10
2018,07,15,07,15,5.10
2018,07,15,07,16,0.80
2018,07,15,07,17,4.20
2018,07,15,07,18,3.00
2018,07,15,07,19,8.90
2018,07,15,07,20,7.20
2018,07,15,07,21,8.70
2018,07,15,07,22,3.30
2018,07,15,07,23,2.10
2018,07,15,07,24,1.20
2018,07,15,07,25,1.00
2018,07,15,07,26,6.40
2018,07,15,07,27,3.50
2018,07,15,07,28,4.80
2018,07,15,07,29,4.40
2018,07,15,07,30,4.60
2018,07,15,07,31,1.60
2018,07,15,07,32,5.00
2018,07,15,07,33,6.80
2018,07,15,07,34,4.80
2018,07,15,07,35,8.70
2018,07,15,07,36,9.70
2018,07,15,07,37,7.70
2018,07,15,07,38,6.10
2018,07,15,07,39,6.70
2018,07,15,07,40,5.20
2018,07,15,07,41,8.60
2018,07,15,07,42,9.90
2018,07,15,07,43,12.60
2018,07,15,07,44,9.50
2018,07,15,07,45,7.90
2018,07,15,07,46,8.90
2018,07,15,07,47,13.80
2018,07,15,07,48,12.20
2018,07,15,07,49,9.40
2018,07,15,07,50,8.70
2018,07,15,07,51,10.50
2018,07,15,07,52,7.90
2018,07,15,07,53,5.50
2018,07,15,07,54,8.80
2018,07,15,07,55,8.40
2018,07,15,07,56,10.90
2018,07,15,07,57,6.70
2018,07,15,07,58,5.90
2018,07,15,07,59,6.00
2018,07,15,08,00,9.70
2018,07,15,08,01,7.80
2018,07,15,08,02,5.10
2018,07,15,08,03,4.00
2018,07,15,08,04,5.60
2018,07,15,08,05,4.30
2018,07,15,08,06,3.60
2018,07,15,08,07,6.40
2018,07,15,08,08,7.40
2018,07,15,08,09,6.10
2018,07,15,08,10,8.10
2018,07,15,08,11,10.70
2018,07,15,08,12,12.60
2018,07,15,08,13,10.80
2018,07,15,08,14,11.70
2018,07,15,08,15,10.80
2018,07,15,08,16,8.20
2018,07,15,08,17,3.50
2018,07,15,08,18,5.20
2018,07,15,08,19,9.60
2018,07,15,08,20,11.20
2018,07,15,08,21,18.60
2018,07,15,08,22,15.00
2018,07,15,08,23,7.60
2018,07,15,08,24,13.10
2018,07,15,08,25,7.60
2018,07,15,08,26,7.00
2018,07,15,08,27,10.30
2018,07,15,08,28,14.10
2018,07,15,08,29,8.90
2018,07,15,08,30,5.20
2018,07,15,08,31,12.60
2018,07,15,08,32,12.40
2018,07,15,08,33,7.00
2018,07,15,08,34,9.30
2018,07,15,08,35,14.30
2018,07,15,08,36,15.80
2018,07,15,08,37,14.80
2018,07,15,08,38,12.00
2018,07,15,08,39,13.80
2018,07,15,08,40,14.70
2018,07,15,08,41,12.40
2018,07,15,08,42,12.20
2018,07,15,08,43,11.20
2018,07,15,08,44,12.20
2018,07,15,08,45,9.30
2018,07,15,08,46,12.90
2018,07,15,08,47,8.40
2018,07,15,08,48,10.30
2018,07,15,08,49,7.60
2018,07,15,08,50,11.50
2018,07,15,08,51,9.80
2018,07,15,08,52,13.00
2018,07,15,08,53,7.80
2018,07,15,08,54,6.80
2018,07,15,08,55,6.50
2018,07,15,08,56,5.60
2018,07,15,08,57,9.60
2018,07,15,08,58,3.70
2018,07,15,08,59,8.10
2018,07,15,09,00,10.80
2018,07,15,09,01,12.30
2018,07,15,09,02,9.50
2018,07,15,09,03,7.20
2018,07,15,09,04,13.00
2018,07,15,09,05,10.70
2018,07,15,09,06,7.90
2018,07,15,09,07,13.00
2018,07,15,09,08,15.00
2018,07,15,09,09,7.60
2018,07,15,09,10,7.40
2018,07,15,09,11,4.30
2018,07,15,09,12,5.20
2018,07,15,09,13,7.80
2018,07,15,09,14,5.50
2018,07,15,09,15,4.10
2018,07,15,09,16,9.30
2018,07,15,09,17,7.50
2018,07,15,09,18,5.20
2018,07,15,09,19,8.10
2018,07,15,09,20,1.30
2018,07,15,09,21,3.80
2018,07,15,09,22,7.40
2018,07,15,09,23,5.40
2018,07,15,09,24,4.10
2018,07,15,09,25,4.60
2018,07,15,09,26,4.30
2018,07,15,09,27,8.30
2018,07,15,09,28,6.30
2018,07,15,09,29,6.20
2018,07,15,09,30,1.50
2018,07,15,09,31,7.10
2018,07,15,09,32,6.00
2018,07,15,09,33,13.70
2018,07,15,09,34,15.80
2018,07,15,09,35,12.60
2018,07,15,09,36,10.60
2018,07,15,09,37,7.10
2018,07,15,09,38,9.20
2018,07,15,09,39,8.60
2018,07,15,09,40,10.20
2018,07,15,09,41,12.30
2018,07,15,09,42,14.80
2018,07,15,09,43,13.60
2018,07,15,09,44,17.90
2018,07,15,09,45,9.40
2018,07,15,09,46,9.80
2018,07,15,09,47,11.70
2018,07,15,09,48,10.80
2018,07,15,09,49,15.40
2018,07,15,09,50,15.80
2018,07,15,09,51,12.40
2018,07,15,09,52,14.10
2018,07,15,09,53,16.70
2018,07,15,09,54,12.00
2018,07,15,09,55,9.70
2018,07,15,09,56,20.80
2018,07,15,09,57,14.70
2018,07,15,09,58,13.40
2018,07,15,09,59,8.80
2018,07,15,10,00,7.60
2018,07,15,10,01,8.90
2018,07,15,10,02,12.80
2018,07,15,10,03,12.70
2018,07,15,10,04,11.00
2018,07,15,10,05,16.00
2018,07,15,10,06,12.10
2018,07,15,10,07,10.60
2018,07,15,10,08,14.10
2018,07,15,10,09,14.60
2018,07,15,10,10,12.80
2018,07,15,10,11,22.40
2018,07,15,10,12,16.20
2018,07,15,10,13,18.70
2018,07,15,10,14,15.80
2018,07,15,10,15,14.00
2018,07,15,10,16,15.30
2018,07,15,10,17,8.30
2018,07,15,10,18,10.40
2018,07,15,10,19,12.70
2018,07,15,10,20,10.40
2018,07,15,10,21,12.90
2018,07,15,10,22,11.10
2018,07,15,10,23,10.60
2018,07,15,10,24,15.90
2018,07,15,10,25,16.60
2018,07,15,10,26,12.30
2018,07,15,10,27,14.50
2018,07,15,10,28,15.30
2018,07,15,10,29,17.50
2018,07,15,10,30,14.30
2018,07,15,10,31,11.30
2018,07,15,10,32,11.30
2018,07,15,10,33,13.30
2018,07,15,10,34,15.30
2018,07,15,10,35,11.90
2018,07,15,10,36,20.50
2018,07,15,10,37,11.90
2018,07,15,10,38,15.10
2018,07,15,10,39,8.30
2018,07,15,10,40,4.60
2018,07,15,10,41,3.40
2018,07,15,10,42,8.40
2018,07,15,10,43,14.60
2018,07,15,10,44,14.00
2018,07,15,10,45,13.80
2018,07,15,10,46,16.20
2018,07,15,10,47,12.70
2018,07,15,10,48,10.20
2018,07,15,10,49,12.00
2018,07,15,10,50,13.60
2018,07,15,10,51,11.50
2018,07,15,10,52,20.70
2018,07,15,10,53,12.40
2018,07,15,10,54,16.30
2018,07,15,10,55,14.30
2018,07,15,10,56,12.00
2018,07,15,10,57,9.20
2018,07,15,10,58,12.00
2018,07,15,10,59,11.30
2018,07,15,11,00,7.10
2018,07,15,11,01,12.30
2018,07,15,11,02,5.70
2018,07,15,11,03,9.30
2018,07,15,11,04,10.90
2018,07,15,11,05,6.70
2018,07,15,11,06,8.50
2018,07,15,11,07,6.90
2018,07,15,11,08,6.90
2018,07,15,11,09,5.30
2018,07,15,11,10,1.20
2018,07,15,11,11,4.40
2018,07,15,11,12,2.80
2018,07,15,11,13,12.00
2018,07,15,11,14,6.60
2018,07,15,11,15,3.80
2018,07,15,11,16,2.60
2018,07,15,11,17,3.20
2018,07,15,11,18,3.30
2018,07,15,11,19,5.50
2018,07,15,11,20,4.80
2018,07,15,11,21,2.90
2018,07,15,11,22,10.70
2018,07,15,11,23,9.20
2018,07,15,11,24,4.90
2018,07,15,11,25,10.90
2018,07,15,11,26,7.10
2018,07,15,11,27,6.40
2018,07,15,11,28,12.70
2018,07,15,11,29,9.90
2018,07,15,11,30,8.70
2018,07,15,11,31,6.00
2018,07,15,11,32,15.10
2018,07,15,11,33,8.50
2018,07,15,11,34,11.40
2018,07,15,11,35,8.60
2018,07,15,11,36,10.90
2018,07,15,11,37,7.60
2018,07,15,11,38,6.10
2018,07,15,11,39,14.10
2018,07,15,11,40,8.70
2018,07,15,11,41,7.40
2018,07,15,11,42,1.30
2018,07,15,11,43,9.10
2018,07,15,11,44,9.40
2018,07,15,11,45,11.70
2018,07,15,11,46,5.40
2018,07,15,11,47,9.60
2018,07,15,11,48,6.10
2018,07,15,11,49,10.00
2018,07,15,11,50,14.30
2018,07,15,11,51,11.40
2018,07,15,11,52,7.80
2018,07,15,11,53,9.20
2018,07,15,11,54,7.30
2018,07,15,11,55,15.70
2018,07,15,11,56,9.00
2018,07,15,11,57,12.30
2018,07,15,11,58,11.00
2018,07,15,11,59,9.30
2018,07,15,12,00,6.40
2018,07,15,12,01,4.90
2018,07,15,12,02,4.80
2018,07,15,12,03,5.30
2018,07,15,12,04,8.50
2018,07,15,12,05,9.50
2018,07,15,12,06,6.90
2018,07,15,12,07,9.10
2018,07,15,12,08,7.70
2018,07,15,12,09,11.90
2018,07,15,12,10,10.10
2018,07,15,12,11,10.80
2018,07,15,12,12,12.50
2018,07,15,12,13,17.20
2018,07,15,12,14,9.40
2018,07,15,12,15,10.00
2018,07,15,12,16,11.90
2018,07,15,12,17,14.00
2018,07,15,12,18,12.00
2018,07,15,12,19,10.30
2018,07,15,12,20,17.50
2018,07,15,12,21,16.40
2018,07,15,12,22,12.50
2018,07,15,12,23,11.70
2018,07,15,12,24,11.60
2018,07,15,12,25,9.00
2018,07,15,12,26,11.40
2018,07,15,12,27,13.20
2018,07,15,12,28,7.00
2018,07,15,12,29,12.30
2018,07,15,12,30,9.10
2018,07,15,12,31,15.50
2018,07,15,12,32,12.40
2018,07,15,12,33,13.80
2018,07,15,12,34,14.70
2018,07,15,12,35,12.10
2018,07,15,12,36,16.20
2018,07,15,12,37,15.60
2018,07,15,12,38,16.10
2018,07,15,12,39,14.10
2018,07,15,12,40,12.30
2018,07,15,12,41,13.60
2018,07,15,12,42,13.60
2018,07,15,12,43,15.40
2018,07,15,12,44,17.80
2018,07,15,12,45,12.80
2018,07,15,12,46,14.60
2018,07,15,12,47,16.60
2018,07,15,12,48,17.40
2018,07,15,12,49,14.20
2018,07,15,12,50,14.10
2018,07,15,12,51,13.60
2018,07,15,12,52,13.20
2018,07,15,12,53,13.00
2018,07,15,12,54,11.30
2018,07,15,12,55,12.70
2018,07,15,12,56,17.90
2018,07,15,12,57,17.10
2018,07,15,12,58,15.30
2018,07,15,12,59,15.30
2018,07,15,13,00,14.70
2018,07,15,13,01,15.10
2018,07,15,13,02,15.90
2018,07,15,13,03,13.60
2018,07,15,13,04,14.70
2018,07,15,13,05,12.50
2018,07,15,13,06,15.10
2018,07,15,13,07,13.60
2018,07,15,13,08,14.90
2018,07,15,13,09,11.70
2018,07,15,13,10,8.50
2018,07,15,13,11,11.30
2018,07,15,13,12,12.30
2018,07,15,13,13,14.40
2018,07,15,13,14,12.60
2018,07,15,13,15,12.10
2018,07,15,13,16,18.10
2018,07,15,13,17,15.70
2018,07,15,13,18,13.90
2018,07,15,13,19,15.40
2018,07,15,13,20,11.40
2018,07,15,13,21,18.70
2018,07,15,13,22,15.40
2018,07,15,13,23,12.70
2018,07,15,13,24,13.00
2018,07,15,13,25,14.30
2018,07,15,13,26,10.40
2018,07,15,13,27,12.90
2018,07,15,13,28,14.20
2018,07,15,13,29,16.50
2018,07,15,13,30,15.20
2018,07,15,13,31,12.10
2018,07,15,13,32,9.80
2018,07,15,13,33,14.00
2018,07,15,13,34,16.70
2018,07,15,13,35,14.30
2018,07,15,13,36,12.40
2018,07,15,13,37,14.20
2018,07,15,13,38,11.60
2018,07,15,13,39,14.10
2018,07,15,13,40,9.70
2018,07,15,13,41,11.90
2018,07,15,13,42,15.80
2018,07,15,13,43,10.00
2018,07,15,13,44,17.00
2018,07,15,13,45,13.20
2018,07,15,13,46,10.90
2018,07,15,13,47,14.20
2018,07,15,13,48,12.10
2018,07,15,13,49,16.00
2018,07,15,13,50,8.40
2018,07,15,13,51,13.30
2018,07,15,13,52,15.90
2018,07,15,13,53,13.50
2018,07,15,13,54,9.30
2018,07,15,13,55,14.90
2018,07,15,13,56,12.60
2018,07,15,13,57,17.50
2018,07,15,13,58,13.50
2018,07,15,13,59,7.00
2018,07,15,14,00,12.60
2018,07,15,14,01,14.30
2018,07,15,14,02,15.10
2018,07,15,14,03,9.70
2018,07,15,14,04,16.40
2018,07,15,14,05,19.10
2018,07,15,14,06,13.10
2018,07,15,14,07,11.70
2018,07,15,14,08,13.20
2018,07,15,14,09,15.50
2018,07,15,14,10,13.60
2018,07,15,14,11,15.00
2018,07,15,14,12,13.20
2018,07,15,14,13,13.60
2018,07,15,14,14,13.60
2018,07,15,14,15,14.20
2018,07,15,14,16,17.00
2018,07,15,14,17,16.90
2018,07,15,14,18,14.50
2018,07,15,14,19,14.10
2018,07,15,14,20,18.30
2018,07,15,14,21,16.70
2018,07,15,14,22,12.90
2018,07,15,14,23,11.60
2018,07,15,14,24,12.10
2018,07,15,14,25,13.80
2018,07,15,14,26,16.10
2018,07,15,14,27,16.40
2018,07,15,14,28,12.10
2018,07,15,14,29,13.90
2018,07,15,14,30,13.70
2018,07,15,14,31,13.00
2018,07,15,14,32,8.20
2018,07,15,14,33,11.60
2018,07,15,14,34,11.90
2018,07,15,14,35,8.90
2018,07,15,14,36,15.30
2018,07,15,14,37,15.90
2018,07,15,14,38,12.60
2018,07,15,14,39,8.00
2018,07,15,14,40,11.70
2018,07,15,14,41,11.00
2018,07,15,14,42,12.70
2018,07,15,14,43,9.80
2018,07,15,14,44,9.90
2018,07,15,14,45,8.60
2018,07,15,14,46,7.80
2018,07,15,14,47,9.50
2018,07,15,14,48,9.00
2018,07,15,14,49,13.50
2018,07,15,14,50,11.50
2018,07,15,14,51,10.50
2018,07,15,14,52,11.30
2018,07,15,14,53,8.30
2018,07,15,14,54,12.50
2018,07,15,14,55,12.50
2018,07,15,14,56,9.90
2018,07,15,14,57,6.50
2018,07,15,14,58,10.00
2018,07,15,14,59,12.10
2018,07,15,15,00,10.40
2018,07,15,15,01,12.30
2018,07,15,15,02,8.80
2018,07,15,15,03,9.40
2018,07,15,15,04,12.40
2018,07,15,15,05,12.00
2018,07,15,15,06,10.40
2018,07,15,15,07,7.40
2018,07,15,15,08,8.10
2018,07,15,15,09,11.00
2018,07,15,15,10,13.00
2018,07,15,15,11,12.50
2018,07,15,15,12,8.30
2018,07,15,15,13,12.50
2018,07,15,15,14,6.10
2018,07,15,15,15,6.60
2018,07,15,15,16,10.90
2018,07,15,15,17,15.00
2018,07,15,15,18,3.60
2018,07,15,15,19,12.40
2018,07,15,15,20,7.10
2018,07,15,15,21,5.40
2018,07,15,15,22,13.20
2018,07,15,15,23,14.90
2018,07,15,15,24,14.30
2018,07,15,15,25,12.60
2018,07,15,15,26,17.10
2018,07,15,15,27,15.30
2018,07,15,15,28,17.00
2018,07,15,15,29,12.40
2018,07,15,15,30,15.20
2018,07,15,15,31,11.60
2018,07,15,15,32,9.70
2018,07,15,15,33,12.30
2018,07,15,15,34,14.60
2018,07,15,15,35,15.20
2018,07,15,15,36,10.50
2018,07,15,15,37,14.10
2018,07,15,15,38,9.40
2018,07,15,15,39,8.40
2018,07,15,15,40,13.10
2018,07,15,15,41,13.60
2018,07,15,15,42,9.30
2018,07,15,15,43,6.60
2018,07,15,15,44,7.60
2018,07,15,15,45,16.30
2018,07,15,15,46,11.00
2018,07,15,15,47,15.40
2018,07,15,15,48,14.30
2018,07,15,15,49,15.40
2018,07,15,15,50,15.50
2018,07,15,15,51,16.80
2018,07,15,15,52,16.30
2018,07,15,15,53,20.20
2018,07,15,15,54,12.90
2018,07,15,15,55,13.80
2018,07,15,15,56,18.10
2018,07,15,15,57,18.30
2018,07,15,15,58,15.20
2018,07,15,15,59,12.90
2018,07,15,16,00,14.20
2018,07,15,16,01,10.40
2018,07,15,16,02,15.60
2018,07,15,16,03,10.30
2018,07,15,16,04,15.80
2018,07,15,16,05,7.00
2018,07,15,16,06,10.90
2018,07,15,16,07,10.20
2018,07,15,16,08,12.90
2018,07,15,16,09,13.60
2018,07,15,16,10,11.70
2018,07,15,16,11,8.50
2018,07,15,16,12,8.60
2018,07,15,16,13,10.80
2018,07,15,16,14,10.40
2018,07,15,16,15,13.10
2018,07,15,16,16,11.00
2018,07,15,16,17,12.60
2018,07,15,16,18,12.90
2018,07,15,16,19,15.60
2018,07,15,16,20,17.20
2018,07,15,16,21,14.20
2018,07,15,16,22,10.80
2018,07,15,16,23,7.70
2018,07,15,16,24,9.00
2018,07,15,16,25,10.30
2018,07,15,16,26,11.50
2018,07,15,16,27,15.90
2018,07,15,16,28,10.60
2018,07,15,16,29,15.00
2018,07,15,16,30,14.90
2018,07,15,16,31,11.10
2018,07,15,16,32,2.60
2018,07,15,16,33,5.50
2018,07,15,16,34,17.50
2018,07,15,16,35,19.50
2018,07,15,16,36,12.00
2018,07,15,16,37,16.10
2018,07,15,16,38,15.40
2018,07,15,16,39,8.10
2018,07,15,16,40,9.70
2018,07,15,16,41,15.50
2018,07,15,16,42,12.50
2018,07,15,16,43,10.30
2018,07,15,16,44,13.80
2018,07,15,16,45,15.60
2018,07,15,16,46,13.20
2018,07,15,16,47,7.70
2018,07,15,16,48,8.40
2018,07,15,16,49,16.50
2018,07,15,16,50,14.80
2018,07,15,16,51,17.80
2018,07,15,16,52,15.10
2018,07,15,16,53,15.90
2018,07,15,16,54,13.30
2018,07,15,16,55,16.00
2018,07,15,16,56,14.70
2018,07,15,16,57,12.80
2018,07,15,16,58,10.50
2018,07,15,16,59,9.30
2018,07,15,17,00,7.90
2018,07,15,17,01,9.00
2018,07,15,17,02,8.70
2018,07,15,17,03,6.30
2018,07,15,17,04,11.10
2018,07,15,17,05,15.10
2018,07,15,17,06,11.30
2018,07,15,17,07,5.60
2018,07,15,17,08,10.30
2018,07,15,17,09,14.60
2018,07,15,17,10,9.90
2018,07,15,17,11,12.90
2018,07,15,17,12,8.60
2018,07,15,17,13,17.80
2018,07,15,17,14,10.00
2018,07,15,17,15,12.60
2018,07,15,17,16,10.50
2018,07,15,17,17,10.20
2018,07,15,17,18,12.60
2018,07,15,17,19,13.30
2018,07,15,17,20,13.80
2018,07,15,17,21,5.20
2018,07,15,17,22,12.50
2018,07,15,17,23,14.30
2018,07,15,17,24,12.80
2018,07,15,17,25,12.30
2018,07,15,17,26,9.10
2018,07,15,17,27,5.10
2018,07,15,17,28,9.20
2018,07,15,17,29,11.80
2018,07,15,17,30,8.00
2018,07,15,17,31,4.10
2018,07,15,17,32,9.00
2018,07,15,17,33,13.40
2018,07,15,17,34,11.30
2018,07,15,17,35,12.40
2018,07,15,17,36,11.70
2018,07,15,17,37,16.20
2018,07,15,17,38,12.90
2018,07,15,17,39,14.50
2018,07,15,17,40,14.00
2018,07,15,17,41,10.70
2018,07,15,17,42,10.20
2018,07,15,17,43,11.90
2018,07,15,17,44,18.30
2018,07,15,17,45,11.90
2018,07,15,17,46,14.80